User: anonymous   Login
Location: Unspecified
(43.4680°N, 87.1740°E)
Time: 13:56:27
(UTC+00:00)
Language:

Cosmos 2221 Rocket - Orbit

View from above orbital plane
View from above orbital plane
View from above satellite
View from above satellite

Ground track
Ground track

The orbit data is extracted from the following two-line orbital elements,

1 22237U 92080B   21169.08384459  .00000067  00000-0  59915-5 0  9992
2 22237  82.5116 197.7018 0021252 103.8584 256.4995 14.78447300539426
Epoch (UTC): 18 June 2021 02:00:44
Eccentricity: 0.0021252
inclination: 82.5116°
perigee height: 619 km
apogee height: 649 km
right ascension of ascending node: 197.7018°
argument of perigee: 103.8584°
revolutions per day: 14.78447300
mean anomaly at epoch: 256.4995°
orbit number at epoch: 53942

The dashed part of the orbit path shows where the satellite is in the earth's shadow,  

DLR